(144494) = 2004 EW65

Discovered at Kitt Peak on 2004-03-14 by Spacewatch.

Orbit

Orbit type: Main Belt

Note: WebGL enabled browser required.

epoch2024-03-31.0
epoch JD2460400.5
perihelion date2023-02-22.63916
perihelion JD2459998.13916
argument of perihelion (°)113.59836
ascending node (°)189.66126
inclination (°)3.27330
eccentricity0.0705166
perihelion distance (AU)2.4797476
Tisserand w.r.t. Jupiter3.4
ΔV w.r.t. Earth (km/sec)9.9
semimajor axis (AU)2.6678772
mean anomaly (°)91.00616
mean daily motion (°/day)0.22618050
aphelion distance (AU)2.856
period (years)4.36
P-vector [x]0.54818276
P-vector [y]-0.78665408
P-vector [z]-0.28402644
Q-vector [x]0.83630368
Q-vector [y]0.51167970
Q-vector [z]0.19692651
absolute magnitude16.27
phase slope0.15
uncertainty0
referenceMPEC 2024-E02
observations used629
oppositions16
arc length (days)8645
first opposition used2000
last opposition used2023
residual rms (arc-secs)0.66
perturbers coarse indicatorM-v
perturbers precise indicator003Ek
first observation date used2000-04-06.0
last observation date used2023-12-07.0
computer nameMPCLINUX
JD of orbit computation2456966.915187
perihelion JD uncertainty (days)1.1894E-04
argument of perihelion uncertainty (°)5.8690E-05
ascending node uncertainty (°)5.1507E-05
inclination uncertainty (°)4.0008E-06
eccentricity uncertainty 2.9873E-08
perihelion distance uncertainty (AU)8.0596E-08
Minimum Orbit Intersection Distances (in AU)
for orbit epoch: 2460400.5, reference: E2024-E02
Mercury2.03913
Venus1.75627
Earth1.46657
Mars1.04893
Jupiter2.2801
Saturn6.21512
Uranus15.6279
Neptune27.12

Observations

634 total observations over interval: 2000 04 06.34251 – 2023 12 07.119088
These data are available for download (format description).

Date (UT) J2000 RA J2000 Dec Magn Location Ref
2000 04 06.34251 13 40 54.61 -09 12 19.8 19.4   704 – Lincoln Laboratory ETS, New Mexico MPS 104369
2000 04 06.37074 13 40 53.23 -09 12 08.8 19.7   704 – Lincoln Laboratory ETS, New Mexico MPS 104369
2000 04 06.38479 13 40 52.60 -09 12 03.9 19.4   704 – Lincoln Laboratory ETS, New Mexico MPS 104369
2000 04 06.39884 13 40 51.92 -09 11 58.9 19.7   704 – Lincoln Laboratory ETS, New Mexico MPS 104369
2000 04 26.28667 13 24 38.15 -07 12 14.2 20.4 V 691 – Steward Observatory, Kitt Peak-Spacewatch MPS 104369
2000 04 26.30764 13 24 37.15 -07 12 06.9 20.4 V 691 – Steward Observatory, Kitt Peak-Spacewatch MPS 104369
2000 04 26.32861 13 24 36.14 -07 11 59.7 20.5 V 691 – Steward Observatory, Kitt Peak-Spacewatch MPS 104369
2000 05 02.29195 13 20 12.03 -06 39 33.3 20.3 V 691 – Steward Observatory, Kitt Peak-Spacewatch MPS 104369
2000 05 02.31394 13 20 11.09 -06 39 26.3 20.4 V 691 – Steward Observatory, Kitt Peak-Spacewatch MPS 104369
2000 05 02.33764 13 20 10.05 -06 39 19.1 20.4 V 691 – Steward Observatory, Kitt Peak-Spacewatch MPS 104369
2001 08 16.28565 22 01 02.21 -08 09 56.5 19.5   704 – Lincoln Laboratory ETS, New Mexico MPS 104369
2001 08 16.29802 22 01 01.57 -08 10 00.3 19.7   704 – Lincoln Laboratory ETS, New Mexico MPS 104369
2001 08 16.31027 22 01 00.87 -08 10 03.6 19.2   704 – Lincoln Laboratory ETS, New Mexico MPS 104369
2001 08 16.32249 22 01 00.27 -08 10 08.7 19.6   704 – Lincoln Laboratory ETS, New Mexico MPS 104369
2001 09 20.13230 21 37 17.96 -11 12 00.9 20.2   704 – Lincoln Laboratory ETS, New Mexico MPS 104369
2001 09 20.14668 21 37 17.56 -11 12 03.5 20.1   704 – Lincoln Laboratory ETS, New Mexico MPS 104369
2001 09 20.16093 21 37 17.27 -11 12 07.6 20.0   704 – Lincoln Laboratory ETS, New Mexico MPS 104369
2001 09 20.17517 21 37 16.95 -11 12 10.9 20.0   704 – Lincoln Laboratory ETS, New Mexico MPS 104369
2004 02 26.38639 11 29 29.60 +01 11 49.2 19.8 R 695 – Kitt Peak MPS 103908
2004 02 26.46500 11 29 25.96 +01 12 15.6   695 – Kitt Peak MPS 103908
2004 03 14.31315 11 15 49.46 +02 56 09.2 20.4 V 691 – Steward Observatory, Kitt Peak-Spacewatch MPS 103227
2004 03 14.39576 11 15 45.24 +02 56 41.1 20.3 V 691 – Steward Observatory, Kitt Peak-Spacewatch MPS 103227
2004 03 14.42485 11 15 43.78 +02 56 52.0 20.6 V 691 – Steward Observatory, Kitt Peak-Spacewatch MPS 103227
2004 03 18.28895 11 12 35.66 +03 21 27.5 20.1   704 – Lincoln Laboratory ETS, New Mexico MPS 103227
2004 03 18.30028 11 12 34.99 +03 21 32.9 20.0   704 – Lincoln Laboratory ETS, New Mexico MPS 103227
2004 03 18.31210 11 12 34.46 +03 21 37.6 20.2   704 – Lincoln Laboratory ETS, New Mexico MPS 103227
2004 03 18.32366 11 12 33.80 +03 21 40.9 20.3   704 – Lincoln Laboratory ETS, New Mexico MPS 103227
2004 03 18.33528 11 12 33.29 +03 21 45.9 20.3   704 – Lincoln Laboratory ETS, New Mexico MPS 103227
2004 03 21.26167 11 10 15.03 +03 40 02.3 21.0 V 691 – Steward Observatory, Kitt Peak-Spacewatch MPS 103908
2004 03 21.32242 11 10 12.10 +03 40 24.8 20.3 V 691 – Steward Observatory, Kitt Peak-Spacewatch MPS 103908
2004 03 21.35079 11 10 10.72 +03 40 35.4 20.3 V 691 – Steward Observatory, Kitt Peak-Spacewatch MPS 103908
2004 03 28.13695 11 05 13.19 +04 20 49.4 20.7 V 691 – Steward Observatory, Kitt Peak-Spacewatch MPS 103908
2004 03 28.16706 11 05 11.91 +04 20 59.1 20.7 V 691 – Steward Observatory, Kitt Peak-Spacewatch MPS 103908
2004 03 28.19424 11 05 10.75 +04 21 08.3 20.4 V 691 – Steward Observatory, Kitt Peak-Spacewatch MPS 103908
2006 09 26.44597 03 13 50.95 +15 59 00.5 19.9 V G96 – Mt. Lemmon Survey MPS 181036
2006 09 26.45211 03 13 50.84 +15 58 59.5 20.2 V G96 – Mt. Lemmon Survey MPS 181036
2006 09 26.45836 03 13 50.77 +15 58 58.5 20.1 V G96 – Mt. Lemmon Survey MPS 181036
2006 09 26.46470 03 13 50.66 +15 58 57.8 19.9 V G96 – Mt. Lemmon Survey MPS 181036
2006 10 15.33529 03 05 18.41 +14 53 52.7   691 – Steward Observatory, Kitt Peak-Spacewatch MPS 182942
2006 10 15.35270 03 05 17.66 +14 53 48.1   691 – Steward Observatory, Kitt Peak-Spacewatch MPS 182942
2006 10 15.37066 03 05 16.91 +14 53 43.9   691 – Steward Observatory, Kitt Peak-Spacewatch MPS 182942
2006 10 19.32529 03 02 27.64 +14 35 56.5 20.3 V 691 – Steward Observatory, Kitt Peak-Spacewatch MPS 182942
2006 10 19.34274 03 02 26.86 +14 35 51.8 20.4 V 691 – Steward Observatory, Kitt Peak-Spacewatch MPS 182942
2006 10 19.36018 03 02 26.01 +14 35 46.9 20.2 V 691 – Steward Observatory, Kitt Peak-Spacewatch MPS 182942
2006 10 23.31714 02 59 20.36 +14 16 55.8 20.2 V 691 – Steward Observatory, Kitt Peak-Spacewatch MPS 184060
2006 10 23.33458 02 59 19.49 +14 16 51.0 20.2 V 691 – Steward Observatory, Kitt Peak-Spacewatch MPS 184060
2006 10 23.35496 02 59 18.45 +14 16 45.3 20.2 V 691 – Steward Observatory, Kitt Peak-Spacewatch MPS 184060
2006 10 27.33129 02 55 58.99 +13 57 02.7 20.2 V 691 – Steward Observatory, Kitt Peak-Spacewatch MPS 185444
2006 10 27.34870 02 55 58.03 +13 56 57.0 20.6 V 691 – Steward Observatory, Kitt Peak-Spacewatch MPS 185444
2006 10 27.36655 02 55 57.06 +13 56 51.7 20.3 V 691 – Steward Observatory, Kitt Peak-Spacewatch MPS 185444
2006 10 29.29141 02 54 17.13 +13 47 07.4   291 – LPL/Spacewatch II MPS 185444
2006 10 29.29539 02 54 16.92 +13 47 06.2   291 – LPL/Spacewatch II MPS 185444
2006 10 29.29938 02 54 16.69 +13 47 04.8   291 – LPL/Spacewatch II MPS 185444
2006 11 08.39491 02 45 15.80 +12 55 42.2 19.8 R 644 – Palomar Mountain/NEAT MPS 190472
2006 11 08.41660 02 45 14.60 +12 55 35.5 19.9 R 644 – Palomar Mountain/NEAT MPS 190472
2006 11 08.43703 02 45 13.46 +12 55 29.6 20.4 R 644 – Palomar Mountain/NEAT MPS 190472
2006 11 09.31131 02 44 26.95 +12 51 08.1 20.4 R 644 – Palomar Mountain/NEAT MPS 190472
2006 11 09.31254 02 44 26.86 +12 51 07.9 19.6 R 644 – Palomar Mountain/NEAT MPS 190472
2006 11 09.33211 02 44 25.80 +12 51 01.9 19.9 R 644 – Palomar Mountain/NEAT MPS 190472
2006 11 09.33334 02 44 25.71 +12 51 01.5 19.7 R 644 – Palomar Mountain/NEAT MPS 190472
2006 11 09.35414 02 44 24.63 +12 50 55.6 20.1 R 644 – Palomar Mountain/NEAT MPS 190472
2006 11 09.35537 02 44 24.50 +12 50 54.8 19.5 R 644 – Palomar Mountain/NEAT MPS 190472
2006 11 11.28719 02 42 42.04 +12 41 23.2 19.6 V 703 – Catalina Sky Survey MPS 186981
2006 11 11.29825 02 42 41.47 +12 41 18.8 19.7 V 703 – Catalina Sky Survey MPS 186981
2006 11 11.30932 02 42 40.86 +12 41 17.6 19.9 V 703 – Catalina Sky Survey MPS 186981
2006 11 11.32037 02 42 40.28 +12 41 12.4 19.8 V 703 – Catalina Sky Survey MPS 186981
2006 11 15.26104 02 39 16.48 +12 22 25.1 19.7 V G96 – Mt. Lemmon Survey MPS 186981
2006 11 15.26880 02 39 16.05 +12 22 22.8 19.7 V G96 – Mt. Lemmon Survey MPS 186981
2006 11 15.27669 02 39 15.66 +12 22 20.6 19.8 V G96 – Mt. Lemmon Survey MPS 186981
2006 11 15.28462 02 39 15.22 +12 22 18.5 19.9 V G96 – Mt. Lemmon Survey MPS 186981
2008 01 12.44817 09 33 36.29 +10 15 43.1   691 – Steward Observatory, Kitt Peak-Spacewatch MPS 234979
2008 01 12.46581 09 33 35.60 +10 15 45.5   691 – Steward Observatory, Kitt Peak-Spacewatch MPS 234979
2008 01 12.48344 09 33 34.92 +10 15 48.2   691 – Steward Observatory, Kitt Peak-Spacewatch MPS 234979
2008 01 16.39918 09 31 03.54 +10 27 04.6 20.3 V 691 – Steward Observatory, Kitt Peak-Spacewatch MPS 234979
2008 01 16.41754 09 31 02.76 +10 27 07.8 20.5 V 691 – Steward Observatory, Kitt Peak-Spacewatch MPS 234979
2008 01 16.43310 09 31 02.07 +10 27 11.1 20.3 V 691 – Steward Observatory, Kitt Peak-Spacewatch MPS 234979
2008 02 07.31520 09 12 55.51 +11 57 22.7 20.0 V G96 – Mt. Lemmon Survey MPS 237249
2008 02 07.32181 09 12 55.15 +11 57 24.6 19.9 V G96 – Mt. Lemmon Survey MPS 237249
2008 02 07.32843 09 12 54.75 +11 57 26.4 19.9 V G96 – Mt. Lemmon Survey MPS 237249
2008 02 07.33503 09 12 54.39 +11 57 28.5 19.9 V G96 – Mt. Lemmon Survey MPS 237249
2008 02 08.31672 09 12 01.36 +12 02 10.5 19.9 V G96 – Mt. Lemmon Survey MPS 237249
2008 02 08.32142 09 12 01.11 +12 02 11.6 19.9 V G96 – Mt. Lemmon Survey MPS 237249
2008 02 08.32620 09 12 00.86 +12 02 13.1 19.9 V G96 – Mt. Lemmon Survey MPS 237249
2008 02 08.33087 09 12 00.57 +12 02 14.4 19.9 V G96 – Mt. Lemmon Survey MPS 237249
2008 02 08.36264 09 11 58.81 +12 02 24.0 20.0 V G96 – Mt. Lemmon Survey MPS 237249
2008 02 08.36912 09 11 58.45 +12 02 26.0 20.0 V G96 – Mt. Lemmon Survey MPS 237249
